| time (UTC) | temp F | wind direction | speed MPH | gust MPH | rain 1hr in | rain 24hr in | rain mn in | humidity % | barometer mb |
| 20260502181716 | 62 | 59 | 2.0 | 3.0 | 0.00 | 0.00 | 0.00 | 66 | 1018.5 |
| 20260502180717 | 64 | 53 | 3.0 | 5.0 | 0.00 | 0.00 | 0.00 | 63 | 1018.4 |
| 20260502163718 | 75 | 51 | 2.0 | 5.0 | 0.00 | 0.00 | 0.00 | 41 | 1018.7 |
| 20260502162716 | 76 | 48 | 3.0 | 5.0 | 0.00 | 0.00 | 0.00 | 39 | 1018.7 |
| 20260502161716 | 77 | 56 | 1.0 | 3.0 | 0.00 | 0.00 | 0.00 | 40 | 1018.9 |
| 20260502160716 | 76 | 46 | 2.0 | 6.0 | 0.00 | 0.00 | 0.00 | 41 | 1019.0 |
| 20260502151715 | 77 | 20 | 2.0 | 5.0 | 0.00 | 0.00 | 0.00 | 39 | 1019.5 |
| 20260502150716 | 76 | 37 | 2.0 | 4.0 | 0.00 | 0.00 | 0.00 | 40 | 1019.5 |
| 20260502130715 | 74 | 48 | 2.0 | 4.0 | 0.00 | 0.00 | 0.00 | 42 | 1021.3 |
| 20260502123716 | 73 | 353 | 2.0 | 4.0 | 0.00 | 0.00 | 0.00 | 46 | 1021.6 |
| 20260502122717 | 73 | 242 | 2.0 | 7.0 | 0.00 | 0.00 | 0.00 | 48 | 1021.7 |
| 20260502121717 | 74 | 241 | 2.0 | 5.0 | 0.00 | 0.00 | 0.00 | 48 | 1021.8 |
| 20260502120717 | 74 | 202 | 1.0 | 3.0 | 0.00 | 0.00 | 0.00 | 51 | 1022.0 |
| 20260502115715 | 72 | 218 | 3.0 | 6.0 | 0.00 | 0.00 | 0.00 | 53 | 1022.1 |
| 20260502114716 | 71 | 53 | 1.0 | 4.0 | 0.00 | 0.00 | 0.00 | 53 | 1022.3 |
| 20260502113716 | 73 | 252 | 2.0 | 4.0 | 0.00 | 0.00 | 0.00 | 53 | 1022.5 |
| 20260502112716 | 72 | 259 | 1.0 | 4.0 | 0.00 | 0.00 | 0.00 | 54 | 1022.6 |
| 20260502111717 | 71 | 267 | 1.0 | 4.0 | 0.00 | 0.00 | 0.00 | 54 | 1022.7 |
| 20260502110717 | 71 | 219 | 1.0 | 4.0 | 0.00 | 0.00 | 0.00 | 55 | 1023.0 |
| 20260502105717 | 69 | 228 | 1.0 | 4.0 | 0.00 | 0.00 | 0.00 | 56 | 1023.1 |
| 20260502104715 | 69 | 234 | 1.0 | 3.0 | 0.00 | 0.00 | 0.00 | 56 | 1023.2 |
| 20260502103716 | 69 | 259 | 2.0 | 4.0 | 0.00 | 0.00 | 0.00 | 55 | 1023.3 |
| 20260502102716 | 68 | 302 | 1.0 | 4.0 | 0.00 | 0.00 | 0.00 | 55 | 1023.4 |
| 20260502101716 | 68 | 244 | 1.0 | 4.0 | 0.00 | 0.00 | 0.00 | 55 | 1023.6 |
| 20260502100717 | 68 | 299 | 0.0 | 1.0 | 0.00 | 0.00 | 0.00 | 53 | 1023.7 |
| 20260502090716 | 62 | 197 | 1.0 | 3.0 | 0.00 | 0.00 | 0.00 | 62 | 1024.3 |
| 20260502070715 | 57 | 0.0 | 0.0 | 0.00 | 0.00 | 0.00 | 65 | 1024.5 | |
| 20260502065717 | 56 | 0.0 | 0.0 | 0.00 | 0.00 | 0.00 | 65 | 1024.5 | |
| 20260502064716 | 55 | 0.0 | 0.0 | 0.00 | 0.00 | 0.00 | 66 | 1024.5 | |
| 20260502063717 | 55 | 0.0 | 0.0 | 0.00 | 0.00 | 0.00 | 66 | 1024.5 | |
| 20260502062717 | 54 | 0.0 | 0.0 | 0.00 | 0.00 | 0.00 | 67 | 1024.4 | |
| 20260502061717 | 54 | 0.0 | 0.0 | 0.00 | 0.00 | 0.00 | 66 | 1024.4 | |
| 20260502060715 | 53 | 0.0 | 0.0 | 0.00 | 0.00 | 0.00 | 69 | 1024.5 | |
| 20260502055715 | 53 | 0.0 | 0.0 | 0.00 | 0.00 | 0.00 | 67 | 1024.5 | |
| 20260502054716 | 52 | 141 | 0.0 | 1.0 | 0.00 | 0.00 | 0.00 | 69 | 1024.4 |
| 20260502053716 | 52 | 0.0 | 0.0 | 0.00 | 0.00 | 0.00 | 70 | 1024.4 | |
| 20260502052717 | 53 | 0.0 | 0.0 | 0.00 | 0.00 | 0.00 | 67 | 1024.4 | |
| 20260502051717 | 51 | 134 | 1.0 | 5.0 | 0.00 | 0.00 | 0.00 | 69 | 1024.3 |
| 20260502050718 | 50 | 0.0 | 0.0 | 0.00 | 0.00 | 0.00 | 69 | 1024.3 | |
| 20260502045715 | 49 | 0.0 | 0.0 | 0.00 | 0.00 | 0.00 | 69 | 1024.2 | |
| 20260502044716 | 48 | 0.0 | 0.0 | 0.00 | 0.00 | 0.00 | 72 | 1024.3 | |
| 20260502043716 | 49 | 0.0 | 0.0 | 0.00 | 0.00 | 0.00 | 70 | 1024.2 | |
| 20260502042717 | 49 | 0.0 | 0.0 | 0.00 | 0.00 | 0.00 | 69 | 1024.2 | |
| 20260502041717 | 49 | 0.0 | 0.0 | 0.00 | 0.00 | 0.00 | 69 | 1024.3 | |
| 20260502040717 | 48 | 0.0 | 0.0 | 0.00 | 0.00 | 0.00 | 70 | 1024.2 | |
| 20260502035718 | 49 | 0.0 | 0.0 | 0.00 | 0.00 | 0.00 | 69 | 1024.1 | |
| 20260502034715 | 49 | 0.0 | 0.0 | 0.00 | 0.00 | 0.00 | 70 | 1024.1 | |
| 20260502033716 | 48 | 73 | 0.0 | 1.0 | 0.00 | 0.00 | 0.00 | 72 | 1024.1 |
| 20260502032716 | 47 | 73 | 0.0 | 1.0 | 0.00 | 0.00 | 0.00 | 74 | 1024.1 |
| 20260502031716 | 47 | 55 | 1.0 | 1.0 | 0.00 | 0.00 | 0.00 | 74 | 1024.1 |
| 20260502030717 | 47 | 54 | 2.0 | 3.0 | 0.00 | 0.00 | 0.00 | 73 | 1024.1 |
| 20260502025717 | 49 | 68 | 1.0 | 3.0 | 0.00 | 0.00 | 0.00 | 70 | 1024.1 |
| 20260502024718 | 47 | 70 | 1.0 | 2.0 | 0.00 | 0.00 | 0.00 | 72 | 1024.2 |
| 20260502023715 | 48 | 55 | 2.0 | 3.0 | 0.00 | 0.00 | 0.00 | 72 | 1024.1 |
| 20260502022716 | 48 | 67 | 1.0 | 2.0 | 0.00 | 0.00 | 0.00 | 70 | 1024.2 |
| 20260502021716 | 48 | 58 | 1.0 | 3.0 | 0.00 | 0.00 | 0.00 | 71 | 1024.2 |
| 20260502020716 | 49 | 59 | 1.0 | 2.0 | 0.00 | 0.00 | 0.00 | 69 | 1024.1 |
| 20260502015717 | 49 | 68 | 0.0 | 2.0 | 0.00 | 0.00 | 0.00 | 68 | 1024.1 |
| 20260502014717 | 50 | 54 | 2.0 | 3.0 | 0.00 | 0.00 | 0.00 | 66 | 1024.1 |
| 20260502013718 | 52 | 56 | 1.0 | 3.0 | 0.00 | 0.00 | 0.00 | 62 | 1024.2 |
| 20260502012715 | 52 | 50 | 3.0 | 5.0 | 0.00 | 0.00 | 0.00 | 62 | 1024.1 |
| 20260502011716 | 53 | 52 | 3.0 | 7.0 | 0.00 | 0.00 | 0.00 | 60 | 1024.1 |
| 20260502010716 | 54 | 44 | 4.0 | 8.0 | 0.00 | 0.00 | 0.00 | 59 | 1024.1 |
| 20260502005716 | 53 | 44 | 4.0 | 7.0 | 0.00 | 0.00 | 0.00 | 61 | 1024.0 |
| 20260502004717 | 53 | 43 | 4.0 | 7.0 | 0.00 | 0.00 | 0.00 | 61 | 1024.1 |
| 20260502003717 | 52 | 48 | 3.0 | 5.0 | 0.00 | 0.00 | 0.00 | 62 | 1024.2 |
| 20260502002718 | 51 | 47 | 3.0 | 5.0 | 0.00 | 0.00 | 0.00 | 63 | 1024.3 |
| 20260502001715 | 52 | 50 | 2.0 | 4.0 | 0.00 | 0.00 | 0.00 | 61 | 1024.3 |
| 20260502000716 | 53 | 99 | 0.0 | 3.0 | 0.00 | 0.00 | 0.00 | 59 | 1024.3 |
| 20260501235716 | 53 | 48 | 5.0 | 9.0 | 0.00 | 0.00 | 0.00 | 60 | 1024.3 |
| 20260501234717 | 53 | 58 | 4.0 | 6.0 | 0.00 | 0.00 | 0.00 | 59 | 1024.3 |
| 20260501233717 | 53 | 45 | 3.0 | 5.0 | 0.00 | 0.00 | 0.00 | 59 | 1024.3 |
| 20260501232717 | 53 | 44 | 3.0 | 5.0 | 0.00 | 0.00 | 0.00 | 58 | 1024.3 |
| 20260501231718 | 52 | 72 | 0.0 | 3.0 | 0.00 | 0.00 | 0.00 | 59 | 1024.4 |
| 20260501230715 | 52 | 43 | 4.0 | 5.0 | 0.00 | 0.00 | 0.00 | 60 | 1024.4 |
| 20260501225716 | 52 | 47 | 4.0 | 5.0 | 0.00 | 0.00 | 0.00 | 61 | 1024.4 |
| 20260501224716 | 52 | 48 | 3.0 | 4.0 | 0.00 | 0.00 | 0.00 | 60 | 1024.4 |
| 20260501222717 | 53 | 59 | 3.0 | 4.0 | 0.00 | 0.00 | 0.00 | 58 | 1024.4 |
| 20260501221717 | 53 | 58 | 3.0 | 4.0 | 0.00 | 0.00 | 0.00 | 57 | 1024.3 |
| 20260501220718 | 53 | 57 | 3.0 | 4.0 | 0.00 | 0.00 | 0.00 | 56 | 1024.3 |
| 20260501215716 | 54 | 53 | 3.0 | 4.0 | 0.00 | 0.00 | 0.00 | 57 | 1024.3 |
| 20260501214716 | 54 | 54 | 3.0 | 4.0 | 0.00 | 0.00 | 0.00 | 54 | 1024.3 |
| 20260501213716 | 55 | 56 | 3.0 | 4.0 | 0.00 | 0.00 | 0.00 | 53 | 1024.3 |
| 20260501212716 | 55 | 48 | 3.0 | 4.0 | 0.00 | 0.00 | 0.00 | 52 | 1024.3 |
| 20260501211717 | 55 | 49 | 4.0 | 5.0 | 0.00 | 0.00 | 0.00 | 52 | 1024.3 |
| 20260501210717 | 56 | 54 | 4.0 | 5.0 | 0.00 | 0.00 | 0.00 | 51 | 1024.2 |
| 20260501205718 | 56 | 52 | 4.0 | 5.0 | 0.00 | 0.00 | 0.00 | 50 | 1024.3 |
| 20260501204715 | 56 | 53 | 4.0 | 5.0 | 0.00 | 0.00 | 0.00 | 51 | 1024.3 |
| 20260501203716 | 56 | 45 | 4.0 | 6.0 | 0.00 | 0.00 | 0.00 | 49 | 1024.3 |
| 20260501202716 | 57 | 53 | 4.0 | 7.0 | 0.00 | 0.00 | 0.00 | 49 | 1024.3 |
| 20260501201717 | 57 | 53 | 4.0 | 6.0 | 0.00 | 0.00 | 0.00 | 48 | 1024.3 |
| 20260501200717 | 57 | 51 | 4.0 | 6.0 | 0.00 | 0.00 | 0.00 | 48 | 1024.4 |
| 20260501195717 | 58 | 50 | 4.0 | 6.0 | 0.00 | 0.00 | 0.00 | 47 | 1024.3 |
| 20260501194715 | 58 | 44 | 4.0 | 7.0 | 0.00 | 0.00 | 0.00 | 46 | 1024.2 |
| 20260501193715 | 58 | 53 | 4.0 | 5.0 | 0.00 | 0.00 | 0.00 | 47 | 1024.1 |
| 20260501192716 | 59 | 49 | 4.0 | 9.0 | 0.00 | 0.00 | 0.00 | 46 | 1024.1 |
| 20260501191716 | 58 | 52 | 4.0 | 7.0 | 0.00 | 0.00 | 0.00 | 47 | 1024.1 |
| 20260501190716 | 59 | 51 | 4.0 | 5.0 | 0.00 | 0.00 | 0.00 | 48 | 1024.1 |
| 20260501185717 | 59 | 49 | 4.0 | 6.0 | 0.00 | 0.00 | 0.00 | 47 | 1024.0 |
| 20260501184717 | 60 | 49 | 4.0 | 5.0 | 0.00 | 0.00 | 0.00 | 46 | 1023.9 |
| 20260501183715 | 62 | 46 | 4.0 | 7.0 | 0.00 | 0.00 | 0.00 | 45 | 1023.9 |
| 20260501182715 | 63 | 49 | 3.0 | 5.0 | 0.00 | 0.00 | 0.00 | 44 | 1023.9 |